Wind_Speed
21 22 23 24 24 24 25 25 24 24 23 22 21 19 18 17 17 17 17 18 17 17 16 16 16 15 14 14 14 15 15 15 15 15 15 16 16 17 18 18 18 19 19
23 23 23 24 24 24 26 26 24 24 23 22 21 21 20 19 19 19 20 19 19 19 18 18 18 17 17 16 16 16 16 16 17 17 17 17 18 19 20 21 22 23 23
23 22 22 22 24 24 25 26 26 24 23 23 22 22 21 20 21 21 21 20 20 20 20 20 19 19 19 19 19 19 19 19 19 20 21 21 22 23 24 24 25 25 26
23 22 22 21 22 22 24 24 25 24 24 24 24 24 23 23 23 23 23 23 22 22 22 21 21 21 22 22 22 22 22 22 23 23 24 25 26 26 27 27 28 28 29
23 23 22 22 21 22 24 24 23 24 24 25 25 24 24 24 24 24 24 24 24 24 23 23 23 24 24 25 24 25 25 26 26 26 27 27 28 29 30 30 31 32 33
23 23 23 23 22 22 23 24 25 25 24 25 25 26 26 26 25 25 25 25 24 24 25 24 25 25 25 26 27 27 28 29 29 29 30 30 31 32 33 33 34 35 35
24 23 24 24 24 23 23 24 25 25 25 26 27 27 27 26 26 27 27 27 26 26 26 26 27 27 28 28 29 29 30 31 32 32 33 33 34 35 35 36 36 37 38
23 23 24 24 24 24 24 24 25 26 27 27 27 28 29 29 29 29 28 27 27 28 28 29 29 30 30 30 31 31 32 32 34 34 34 35 36 37 37 38 39 40 41
25 24 25 24 24 24 24 24 25 25 27 28 29 30 30 30 30 30 30 29 29 30 31 31 31 32 32 32 33 34 34 35 35 35 36 37 38 39 40 41 42 43 44
26 24 25 25 25 25 25 24 25 26 27 27 28 30 31 31 32 32 32 32 33 33 33 32 33 33 33 34 35 35 35 36 36 37 37 38 39 40 41 42 44 45 45
25 25 25 24 25 25 26 25 25 26 27 28 28 28 29 30 31 33 34 35 35 35 34 35 35 35 35 36 35 36 37 37 37 38 39 40 41 42 43 44 45 46 47
25 25 24 25 26 26 27 28 27 26 27 29 29 30 31 32 31 32 33 35 36 36 36 36 35 36 36 36 37 37 38 38 40 40 41 42 43 44 45 46 47 47 48
26 26 26 26 26 25 25 26 27 27 27 28 29 31 32 33 33 33 34 34 35 36 36 35 35 36 36 37 38 38 39 41 42 42 42 43 44 45 46 47 47 48 48
26 26 26 26 26 26 25 26 27 28 28 29 29 30 32 33 34 33 33 34 35 35 36 36 35 36 37 38 39 40 41 42 42 42 43 44 44 45 46 46 47 47 47
26 25 26 27 27 27 26 27 27 27 27 28 29 31 32 33 34 34 34 34 34 34 35 35 36 37 38 38 39 40 40 41 41 41 42 43 43 44 45 45 45 45 44
27 26 27 27 27 27 27 27 27 27 28 29 30 30 30 31 32 32 33 33 33 33 33 34 35 36 37 38 38 38 39 40 40 40 41 42 42 42 42 42 42 41 40
27 27 26 26 26 26 27 27 27 27 28 29 30 30 30 30 30 31 32 32 32 33 34 34 35 36 36 36 36 37 38 39 39 40 40 40 39 39 39 39 38 37 37
26 27 26 27 27 27 26 27 27 28 28 28 29 30 30 30 30 31 31 32 32 33 33 34 34 35 36 36 37 38 37 37 38 38 38 37 37 36 36 35 35 35 35
24 25 25 26 26 26 26 26 26 26 26 27 27 28 28 28 29 30 31 32 32 32 33 33 34 34 35 36 36 36 36 35 35 35 35 34 34 33 33 32 32 32 32
23 23 23 24 25 25 25 25 25 25 26 26 26 26 27 27 28 29 30 31 31 31 32 32 33 34 34 34 35 34 34 33 33 32 32 32 31 31 31 30 30 30 30
21 21 20 21 22 23 23 24 24 24 24 24 24 24 25 26 27 28 29 29 29 30 31 32 33 33 33 32 32 32 31 31 30 30 30 29 29 29 28 28 27 27 26
19 19 18 19 19 20 20 21 22 22 22 22 23 24 25 25 26 27 27 28 29 30 30 31 31 31 31 31 30 29 29 28 28 28 28 27 26 26 25 24 24 23 23
16 17 17 17 18 18 18 19 19 20 20 21 22 23 24 24 25 25 26 27 28 28 29 29 28 28 28 27 27 26 26 26 26 26 25 24 23 22 21 21 20 20 21
15 15 16 16 16 16 17 18 18 19 19 20 21 21 22 23 24 24 25 25 26 26 26 26 26 25 25 24 24 24 24 24 24 23 22 20 19 18 17 17 18 18 19
13 13 14 14 14 15 16 17 17 18 18 19 20 20 21 22 22 23 23 24 24 24 24 23 22 22 22 22 22 22 22 21 21 19 18 17 16 16 15 16 16 16 17
12 13 12 13 13 13 13 14 15 16 17 18 18 19 20 20 21 21 21 22 22 21 21 20 20 20 20 20 20 19 19 18 17 16 15 15 14 14 14 14 14 14 15
Wind_Direction
261 260 258 258 260 259 256 255 254 254 250 248 250 252 252 251 251 252 256 258 261 264 267 270 272 274 275 278 280 282 283 284 282 283 284 283 281 281 282 281 281 282 281
260 261 259 258 259 260 256 254 254 252 250 247 248 250 249 249 251 252 255 259 261 265 266 269 271 272 273 276 279 280 281 282 281 280 281 281 282 283 282 281 281 282 282
261 260 259 258 257 257 255 253 252 248 248 246 247 249 250 249 248 253 256 257 259 262 264 267 269 270 274 276 277 278 279 280 281 279 279 279 281 283 283 282 282 282 281
259 259 258 259 257 255 253 250 248 247 244 242 245 249 251 251 251 255 257 258 259 262 263 266 269 271 274 276 276 276 278 279 280 280 280 281 282 283 283 282 283 283 283
260 258 257 255 253 254 250 248 248 246 245 244 245 247 252 255 257 257 260 262 261 260 263 267 270 272 274 275 276 276 278 279 280 280 281 282 283 282 283 283 282 282 282
260 259 260 254 253 254 251 248 248 248 245 245 245 247 251 255 256 256 259 261 259 261 264 267 269 272 275 276 277 278 278 279 280 281 281 282 283 283 283 283 283 283 283
259 259 257 255 255 253 251 247 246 247 245 244 245 246 249 252 252 254 257 257 259 263 265 267 268 271 274 276 278 278 279 280 281 282 283 283 283 284 284 284 284 285 285
256 257 258 257 253 251 250 251 250 248 245 243 245 248 251 253 253 255 256 255 257 261 265 268 269 272 275 276 278 279 280 281 282 282 283 284 284 285 284 285 285 285 286
257 257 255 258 257 254 253 253 251 249 245 244 245 249 251 253 254 256 257 257 259 262 264 267 270 272 276 277 279 280 281 282 282 282 284 285 285 286 286 286 287 287 286
259 259 256 261 261 259 257 254 251 249 247 247 249 251 253 255 254 255 258 259 262 262 264 267 270 273 275 276 278 279 282 282 282 283 284 286 287 287 288 288 288 288 287
260 262 262 262 262 260 256 254 252 250 250 251 251 254 256 257 257 257 260 262 263 265 266 269 272 274 276 277 279 281 282 283 284 285 286 287 288 289 289 289 289 289 288
262 261 261 261 260 258 255 253 253 254 252 251 252 255 256 257 259 261 263 264 264 266 269 270 272 274 277 278 280 282 282 284 285 286 287 288 289 289 290 290 290 290 289
262 260 259 260 259 259 257 255 255 256 255 255 255 256 256 257 259 263 264 264 265 268 270 271 272 274 276 278 280 281 284 285 287 288 289 289 289 290 290 290 291 291 290
263 261 258 258 258 260 259 258 258 256 255 255 256 258 259 259 261 263 264 264 267 269 270 271 273 276 277 280 282 283 286 287 288 289 289 290 291 291 291 291 292 291 290
263 262 261 261 259 261 261 260 260 256 254 256 258 259 261 261 262 262 263 264 266 267 268 273 275 278 281 283 285 287 287 289 289 290 291 291 292 292 293 292 292 291 290
263 262 259 259 259 261 261 259 258 257 257 259 260 261 263 264 263 264 266 268 269 271 274 277 278 281 283 284 286 288 288 289 290 291 292 292 293 294 293 293 292 292 291
262 262 260 259 259 261 262 262 262 261 261 261 261 263 264 265 265 267 268 270 271 274 276 279 281 282 283 285 286 287 289 290 290 292 292 293 293 294 294 294 293 294 293
262 261 259 259 261 262 263 262 262 263 261 262 262 264 264 265 265 267 270 271 273 276 278 279 281 282 284 285 286 287 289 290 291 292 292 293 294 294 294 294 295 296 296
261 259 259 259 259 259 260 261 263 262 260 259 261 262 263 265 266 268 270 272 275 277 278 280 281 282 283 284 286 287 289 289 290 291 292 292 293 294 295 296 297 297 298
258 256 256 257 257 258 260 261 261 261 261 261 262 263 263 266 269 271 272 274 275 277 279 280 281 282 284 286 287 288 288 289 289 290 291 292 293 294 295 297 298 299 301
259 258 258 260 259 259 260 260 261 262 262 263 263 265 268 270 272 273 275 276 277 278 280 281 282 283 285 286 286 287 287 288 288 289 291 292 293 294 295 297 299 302 304
260 261 260 260 259 260 261 261 261 261 261 262 265 268 269 271 273 274 275 276 277 279 281 282 283 284 285 285 286 286 286 288 288 289 290 292 294 295 296 299 302 305 308
263 264 262 262 260 262 262 262 263 263 264 266 268 269 270 272 273 275 275 277 279 280 281 282 283 284 284 284 285 286 287 288 289 290 292 294 295 296 299 301 303 307 311
263 264 263 265 262 260 259 259 261 263 265 266 268 268 271 272 274 275 277 278 279 280 281 281 281 281 283 284 285 286 287 288 289 291 292 293 294 296 299 302 306 311 315
262 263 264 263 259 258 259 259 260 261 263 266 268 270 271 273 274 275 276 277 278 280 280 280 281 281 282 283 285 286 288 289 290 290 289 290 293 296 299 304 309 314 318
264 262 261 260 261 259 260 261 261 262 265 267 270 272 274 275 276 278 279 279 279 280 281 282 283 283 283 284 285 287 288 289 289 289 288 289 292 297 303 309 314 318 322
Height
5860 5861 5861 5861 5862 5862 5863 5864 5865 5866 5867 5868 5869 5871 5872 5873 5874 5875 5875 5875 5875 5876 5876 5876 5875 5875 5875 5874 5874 5874 5873 5872 5872 5871 5871 5870 5870 5869 5869 5868 5868 5867 5866
5855 5855 5855 5856 5856 5857 5857 5858 5860 5861 5862 5864 5865 5866 5867 5869 5870 5870 5871 5871 5871 5872 5872 5872 5872 5872 5871 5871 5871 5870 5870 5869 5868 5868 5867 5866 5866 5865 5865 5864 5863 5863 5862
5849 5849 5850 5850 5851 5851 5852 5853 5854 5856 5857 5859 5860 5861 5863 5864 5865 5866 5866 5866 5867 5867 5868 5868 5868 5868 5868 5867 5867 5866 5866 5865 5864 5864 5863 5862 5861 5861 5860 5859 5858 5857 5856
5843 5843 5844 5844 5845 5845 5846 5847 5848 5850 5851 5853 5854 5856 5857 5859 5859 5860 5861 5861 5862 5863 5863 5863 5863 5863 5863 5862 5862 5862 5861 5860 5860 5859 5858 5857 5856 5855 5854 5853 5852 5851 5850
5837 5837 5838 5838 5839 5840 5841 5841 5843 5844 5846 5847 5848 5850 5851 5853 5853 5854 5855 5856 5856 5857 5857 5858 5858 5858 5858 5857 5857 5856 5856 5855 5854 5853 5852 5851 5850 5849 5848 5847 5845 5844 5842
5831 5831 5832 5833 5833 5834 5835 5836 5838 5839 5840 5841 5843 5844 5846 5847 5847 5849 5849 5850 5850 5851 5851 5852 5852 5852 5852 5851 5851 5850 5849 5849 5848 5847 5846 5844 5843 5842 5840 5839 5837 5836 5834
5825 5826 5827 5827 5827 5828 5830 5831 5832 5833 5834 5836 5837 5838 5839 5841 5842 5843 5843 5844 5844 5845 5845 5845 5846 5846 5845 5845 5844 5843 5842 5841 5840 5839 5838 5837 5835 5834 5832 5831 5829 5827 5825
5818 5819 5820 5821 5822 5823 5824 5825 5826 5827 5828 5829 5831 5831 5833 5834 5835 5836 5837 5838 5838 5838 5839 5839 5839 5839 5838 5837 5837 5836 5835 5834 5833 5831 5830 5828 5827 5825 5823 5821 5819 5817 5815
5811 5812 5814 5815 5816 5817 5818 5819 5820 5821 5822 5823 5825 5826 5827 5827 5828 5829 5830 5832 5832 5832 5832 5832 5832 5831 5831 5830 5829 5828 5827 5826 5824 5823 5821 5819 5817 5816 5814 5811 5809 5806 5804
5804 5806 5807 5808 5809 5810 5811 5811 5813 5814 5815 5816 5817 5819 5821 5821 5822 5822 5823 5824 5825 5825 5825 5825 5824 5824 5823 5822 5820 5819 5818 5817 5815 5814 5812 5810 5808 5805 5803 5800 5798 5795 5792
5798 5799 5800 5801 5802 5803 5803 5804 5806 5807 5808 5809 5810 5811 5812 5814 5815 5815 5816 5817 5817 5817 5817 5817 5816 5815 5814 5813 5812 5811 5809 5808 5806 5804 5802 5800 5797 5795 5792 5789 5786 5783 5780
5791 5792 5794 5795 5795 5795 5796 5797 5798 5800 5801 5802 5803 5804 5805 5806 5807 5808 5808 5809 5809 5809 5809 5808 5807 5806 5805 5804 5803 5801 5800 5798 5796 5794 5792 5789 5786 5783 5780 5777 5773 5770 5766
5784 5786 5787 5787 5788 5788 5788 5789 5791 5791 5793 5794 5795 5797 5798 5799 5799 5800 5800 5800 5800 5800 5800 5799 5799 5798 5796 5795 5794 5792 5790 5788 5786 5783 5780 5778 5775 5771 5768 5764 5761 5757 5753
5777 5778 5779 5780 5781 5781 5781 5782 5782 5784 5785 5786 5787 5789 5790 5791 5791 5791 5792 5792 5792 5792 5791 5790 5789 5788 5787 5786 5784 5782 5780 5778 5775 5772 5769 5766 5763 5759 5756 5752 5748 5744 5740
5771 5771 5772 5772 5773 5773 5774 5775 5776 5776 5777 5779 5780 5781 5782 5782 5783 5783 5784 5784 5784 5783 5782 5781 5781 5779 5777 5776 5774 5772 5769 5767 5764 5761 5758 5755 5751 5747 5744 5740 5736 5732 5728
5763 5764 5764 5765 5765 5766 5767 5767 5768 5769 5770 5771 5772 5772 5773 5774 5774 5775 5775 5775 5775 5775 5774 5773 5771 5770 5768 5766 5764 5761 5759 5756 5753 5750 5747 5744 5740 5737 5733 5729 5725 5721 5717
5755 5756 5757 5757 5758 5758 5759 5760 5761 5762 5763 5763 5764 5764 5765 5766 5766 5766 5766 5766 5766 5766 5765 5763 5762 5760 5758 5756 5754 5752 5749 5746 5743 5740 5737 5734 5730 5726 5723 5719 5715 5711 5707
5747 5748 5749 5750 5750 5751 5752 5752 5753 5754 5755 5755 5756 5756 5757 5757 5757 5758 5758 5758 5757 5756 5756 5754 5752 5751 5749 5747 5744 5742 5739 5736 5734 5730 5727 5724 5720 5717 5713 5710 5706 5702 5699
5740 5740 5741 5742 5743 5743 5744 5745 5745 5746 5747 5747 5748 5748 5749 5749 5749 5750 5749 5749 5748 5747 5746 5745 5743 5741 5739 5737 5735 5732 5730 5727 5724 5721 5718 5715 5711 5708 5705 5702 5698 5694 5691
5732 5733 5734 5734 5735 5736 5737 5737 5738 5738 5739 5740 5740 5741 5741 5741 5741 5741 5741 5740 5739 5738 5737 5736 5734 5732 5730 5728 5726 5723 5721 5718 5715 5712 5709 5706 5703 5700 5697 5694 5691 5687 5683
5726 5726 5727 5728 5728 5729 5730 5730 5731 5731 5732 5732 5733 5733 5733 5733 5733 5733 5732 5731 5730 5729 5728 5727 5725 5723 5721 5719 5717 5714 5712 5710 5707 5705 5702 5699 5696 5693 5690 5687 5684 5681 5677
5719 5720 5720 5721 5722 5722 5723 5723 5724 5724 5725 5725 5726 5726 5726 5726 5725 5724 5724 5723 5722 5721 5719 5718 5716 5714 5713 5711 5709 5707 5705 5702 5700 5698 5695 5692 5689 5687 5684 5681 5678 5675 5672
5713 5714 5714 5715 5716 5716 5716 5717 5717 5718 5718 5718 5718 5718 5718 5718 5717 5717 5716 5715 5714 5713 5711 5710 5708 5706 5705 5703 5701 5699 5697 5695 5693 5690 5688 5686 5683 5681 5678 5676 5674 5671 5667
5708 5709 5709 5709 5710 5710 5711 5711 5711 5711 5711 5712 5711 5711 5711 5711 5710 5709 5709 5707 5706 5705 5703 5702 5700 5699 5697 5695 5694 5692 5690 5688 5686 5684 5682 5680 5678 5676 5674 5672 5670 5667 5663
5703 5704 5704 5704 5705 5705 5705 5705 5705 5705 5705 5705 5705 5704 5704 5703 5703 5702 5701 5700 5699 5697 5696 5695 5693 5692 5690 5689 5687 5685 5684 5682 5680 5679 5677 5676 5674 5672 5670 5668 5666 5663 5660
5699 5699 5700 5700 5700 5700 5700 5700 5700 5700 5699 5699 5699 5698 5698 5697 5696 5695 5695 5693 5692 5691 5689 5688 5687 5685 5684 5682 5681 5679 5678 5676 5675 5674 5672 5671 5670 5669 5667 5665 5663 5660 5657